Time,TemperatureF,DewpointF,PressureIn,WindDirection,WindDirectionDegrees,WindSpeedMPH,WindSpeedGustMPH,Humidity,HourlyPrecipIn,Conditions,Clouds,dailyrainin,SoftwareType,DateUTC
2013-07-21 00:00:00,68.9,66.2,29.86,NW,323,0.0,1.0,91,0.00,,---,0.00,VWS V13.01,2013-07-21 05:00:00,
2013-07-21 00:30:00,68.0,65.3,29.86,NW,324,0.0,1.0,91,0.00,,---,0.00,VWS V13.01,2013-07-21 05:30:00,
2013-07-21 01:00:00,67.0,64.6,29.86,East,95,0.0,1.0,92,0.00,,---,0.00,VWS V13.01,2013-07-21 06:00:00,
2013-07-21 01:30:00,66.5,64.4,29.86,East,94,0.0,0.0,93,0.00,,---,0.00,VWS V13.01,2013-07-21 06:30:00,
2013-07-21 02:00:00,66.3,64.5,29.86,East,94,0.0,1.0,94,0.00,,---,0.00,VWS V13.01,2013-07-21 07:00:00,
2013-07-21 02:30:00,65.6,64.1,29.87,East,94,0.0,0.0,95,0.00,,---,0.00,VWS V13.01,2013-07-21 07:30:00,
2013-07-21 03:00:00,65.2,63.7,29.86,East,93,0.0,1.0,95,0.00,,---,0.00,VWS V13.01,2013-07-21 08:00:00,
2013-07-21 03:30:00,64.9,63.7,29.86,East,94,0.0,0.0,96,0.00,,---,0.00,VWS V13.01,2013-07-21 08:30:00,
2013-07-21 04:00:00,64.4,63.2,29.87,East,94,0.0,1.0,96,0.00,,---,0.00,VWS V13.01,2013-07-21 09:00:00,
2013-07-21 04:30:00,63.7,62.5,29.87,East,94,0.0,0.0,96,0.00,,---,0.00,VWS V13.01,2013-07-21 09:30:00,
2013-07-21 05:00:00,63.5,62.3,29.87,East,94,0.0,1.0,96,0.00,,---,0.00,VWS V13.01,2013-07-21 10:00:00,
2013-07-21 05:30:00,63.1,61.9,29.88,East,94,0.0,0.0,96,0.00,,---,0.00,VWS V13.01,2013-07-21 10:30:00,
2013-07-21 06:00:00,62.8,61.7,29.88,East,90,0.0,3.0,96,0.00,,---,0.00,VWS V13.01,2013-07-21 11:00:00,
2013-07-21 06:30:00,63.3,62.1,29.88,East,90,0.0,1.0,96,0.00,,---,0.00,VWS V13.01,2013-07-21 11:30:00,
2013-07-21 07:00:00,65.2,63.1,29.89,East,90,0.0,2.0,93,0.00,,---,0.00,VWS V13.01,2013-07-21 12:00:00,
2013-07-21 07:30:00,66.2,63.2,29.88,East,90,0.0,1.0,90,0.00,,---,0.00,VWS V13.01,2013-07-21 12:30:00,
2013-07-21 08:00:00,68.8,65.1,29.88,East,86,0.0,2.0,88,0.00,,---,0.00,VWS V13.01,2013-07-21 13:00:00,
2013-07-21 08:30:00,71.0,66.3,29.89,South,180,0.0,3.0,85,0.00,,---,0.00,VWS V13.01,2013-07-21 13:30:00,
2013-07-21 09:00:00,73.0,67.5,29.89,NE,55,0.0,2.0,83,0.00,,---,0.00,VWS V13.01,2013-07-21 14:00:00,
2013-07-21 09:30:00,75.9,68.6,29.88,ENE,70,0.0,6.0,78,0.00,,---,0.00,VWS V13.01,2013-07-21 14:30:00,
2013-07-21 10:00:00,78.5,69.9,29.88,ENE,69,0.0,4.0,75,0.00,,---,0.00,VWS V13.01,2013-07-21 15:00:00,
2013-07-21 10:30:00,79.8,70.4,29.88,South,170,0.0,4.0,73,0.00,,---,0.00,VWS V13.01,2013-07-21 15:30:00,
2013-07-21 11:00:00,79.9,70.5,29.88,SSW,202,0.0,2.0,73,0.00,,---,0.00,VWS V13.01,2013-07-21 16:00:00,
2013-07-21 11:30:00,81.6,71.3,29.87,South,180,0.0,4.0,71,0.00,,---,0.00,VWS V13.01,2013-07-21 16:30:00,
2013-07-21 12:00:00,84.3,71.7,29.86,South,184,0.0,3.0,66,0.00,,---,0.00,VWS V13.01,2013-07-21 17:00:00,
2013-07-21 12:30:00,84.8,72.6,29.85,SE,135,0.0,3.0,67,0.00,,---,0.00,VWS V13.01,2013-07-21 17:30:00,
2013-07-21 13:00:00,84.7,71.2,29.85,SE,146,1.0,2.0,64,0.00,,---,0.00,VWS V13.01,2013-07-21 18:00:00,
2013-07-21 13:30:00,84.5,71.9,29.85,SSE,153,0.0,3.0,66,0.00,,---,0.00,VWS V13.01,2013-07-21 18:30:00,
2013-07-21 14:00:00,84.9,73.2,29.84,SSE,153,0.0,3.0,68,0.00,,---,0.00,VWS V13.01,2013-07-21 19:00:00,
2013-07-21 14:30:00,84.3,71.7,29.83,SSE,165,0.0,6.0,66,0.00,,---,0.00,VWS V13.01,2013-07-21 19:30:00,
2013-07-21 15:00:00,83.7,72.5,29.82,SSE,165,0.0,4.0,69,0.00,,---,0.00,VWS V13.01,2013-07-21 20:00:00,
2013-07-21 15:30:00,79.4,66.6,29.82,South,186,0.0,5.0,65,0.00,,---,0.00,VWS V13.01,2013-07-21 20:30:00,
2013-07-21 16:00:00,80.8,68.8,29.80,SW,215,0.0,3.0,67,0.00,,---,0.00,VWS V13.01,2013-07-21 21:00:00,
2013-07-21 16:30:00,76.9,68.0,29.80,ESE,107,0.0,5.0,74,0.00,,---,0.00,VWS V13.01,2013-07-21 21:30:00,
2013-07-21 17:00:00,77.6,69.4,29.80,ESE,107,0.0,3.0,76,0.00,,---,0.00,VWS V13.01,2013-07-21 22:00:00,
2013-07-21 17:30:00,77.2,70.6,29.81,ESE,107,0.0,0.0,80,0.00,,---,0.00,VWS V13.01,2013-07-21 22:30:00,
2013-07-21 18:00:00,76.1,69.1,29.83,ESE,115,2.0,6.0,79,0.00,,---,0.00,VWS V13.01,2013-07-21 23:00:00,
2013-07-21 18:30:00,71.0,64.9,29.83,NE,42,2.0,7.0,81,0.00,,---,0.00,VWS V13.01,2013-07-21 23:30:00,
2013-07-21 19:00:00,70.1,65.1,29.84,ENE,68,2.0,7.0,84,0.00,,---,0.00,VWS V13.01,2013-07-22 00:00:00,
2013-07-21 19:30:00,68.7,64.0,29.84,East,82,3.0,9.0,85,0.00,,---,0.00,VWS V13.01,2013-07-22 00:30:00,
2013-07-21 20:00:00,68.1,63.4,29.83,East,80,2.0,8.0,85,0.00,,---,0.00,VWS V13.01,2013-07-22 01:00:00,
2013-07-21 20:30:00,67.5,62.8,29.83,ENE,63,1.0,10.0,85,0.00,,---,0.00,VWS V13.01,2013-07-22 01:30:00,
2013-07-21 21:00:00,67.0,62.7,29.83,ESE,110,0.0,5.0,86,0.00,,---,0.00,VWS V13.01,2013-07-22 02:00:00,
2013-07-21 21:30:00,66.6,62.9,29.83,NE,55,1.0,6.0,88,0.00,,---,0.00,VWS V13.01,2013-07-22 02:30:00,
2013-07-21 22:00:00,66.0,63.0,29.83,ENE,59,0.0,3.0,90,0.00,,---,0.00,VWS V13.01,2013-07-22 03:00:00,
2013-07-21 22:30:00,65.9,63.5,29.83,ENE,57,0.0,3.0,92,0.00,,---,0.00,VWS V13.01,2013-07-22 03:30:00,
2013-07-21 23:00:00,65.8,63.7,29.82,ENE,60,0.0,3.0,93,0.00,,---,0.00,VWS V13.01,2013-07-22 04:00:00,
2013-07-21 23:30:00,65.2,63.1,29.82,ENE,60,0.0,2.0,93,0.00,,---,0.00,VWS V13.01,2013-07-22 04:30:00,